sat.trackr.live / text

‹ back to catalog

UNKNOWN

NORAD 81219

UNKNOWN UNKNOWN UNKNOWN

§ Identity

Operator
Country
Launch date
Launch site
Launch vehicle
Mass (kg)
RCS (m²)

External: N2YO · Heavens-Above

§ Orbital elements

Epoch: 2026-09-17T11:00:56.478528Z

Period
104.19 min
Inclination
82.9281°
Eccentricity
0.0021047
Mean motion
13.82047263 rev/d
Perigee alt
941.2 km
Apogee alt
972.1 km
Semi-major
7,334.8 km
B*
3.7639e-4
RAAN
156.7496°
Arg perigee
143.4706°
Mean anomaly
216.7895°
Rev number
64,601

§ Raw data

UNKNOWN1 81219U          26260.45898702  .00000421  00000+0  37639-3 0  99972 81219  82.9281 156.7496 0021047 143.4706 216.7895 13.82047263646011

JSON: /api/v1/satellites/81219 · /tle

For live sub-satellite position, see the globe view (requires WebGL).

§ Visibility from observer

Set your observer location to see the next 7 days of passes ≥ 10°. The values pass through the URL so the page stays shareable.

No JS? Fill the form by hand. The geolocation button needs JavaScript.